Location: *
(24.1434°N, 56.8729°E)
Time: 07:56:47
(UTC+00:00)

Lacrosse 5 - Pass Details

Date: 09 April 2020
Orbit: 715 x 724 km, 57.0° (Epoch: 21 May)

Event Time Altitude Azimuth Distance (km) Brightness Sun altitude
Exits shadow 23:40:04 16° 140° (SE) 1,812 4.0 -30.3°
Maximum altitude 23:41:37 18° 117° (ESE) 1,701 4.1 -30.0°
Drops below altitude 10° 23:44:59 10° 75° (ENE) 2,188 5.3 -29.3°
Sets 23:48:01 0° 57° (ENE) 3,110 6.4 -28.7°
